Volver al catálogo

DELTA 1 DEB

ActivoSSO
NORAD 12000·DEBRIS·🇺🇸 United States

Lanzado Nov 6, 1973 desde Vandenberg Space Force Base

Loading…

Próximos Pases (próximas 24 horas)

TLE

ActualizadoSource: Space-Track

Época: Sep 14, 2026, 11:53 UTC

1 12000U 73086GL  26257.49530574 -.00000030  00000-0  12474-3 0  9991
2 12000 102.3828 255.5279 0020876 186.9158 328.0390 12.36416617558993

Sigue DELTA 1 DEB en tiempo real con AllMySat

Download on the App Store